Regional Weather Roundup
Issued by NWS Pendleton, OR

Home | Current Version | Previous Version | Text Only | Print | Product List | Glossary On
Versions: 1 2 3 4 5 6 7 8 9 10 11 12 13 14 15 16 17 18 19 20 21 22 23 24 25 26 27 28 29 30 31 32 33 34 35 36 37 38 39 40 41 42 43 44 45 46 47 48 49 50
000
ASUS46 KPDT 051725
RWRPDT
PENDLETON REGIONAL WEATHER ROUNDUP
NATIONAL WEATHER SERVICE PENDLETON OREGON
1000 AM PDT TUE MAY 5 2015

NOTE: FAIR INDICATES FEW OR NO CLOUDS BELOW 12,000 FEET WITH NO
SIGNIFICANT WEATHER AND/OR OBSTRUCTIONS TO VISIBILITY.

# INDICATES UNOFFICIAL STATION AND DATA

WAZ520-051810-
EAST SLOPES OF WASHINGTON CASCADES

CITY            SKY/WX      TMP DP  RH  WIND    PRES   REMARKS
#BULLFROG 2SW   N/A         44  37  76  N10     27.59R
#BUMPING DAM    N/A         36  N/A N/A S1      N/A
#CLE ELUM HS    N/A         47  33  58  W5      29.94R
#CLE ELUM LAKE  N/A         43  32  65  NW2     29.93S
#CLIFFDEL 2NW   N/A         39  35  85  N2      N/A
#GLENWOOD       N/A         47  40  76  W2      30.01R
#MANASTASH CYN  N/A         47  30  51  N3      29.95R
#NELSON         N/A         46  37  71  S2      29.98S
#NELSON 3SW     N/A         39  35  85  CALM    30.16S
#NILE           N/A         48  35  60  W7      29.22R
#RONALD 2NW     N/A         45  32  60  SW3     29.85S
#SNOWDEN        N/A         43  32  65  NW7     N/A
#TEANAWAY 4NE   N/A         50  35  56  W5      N/A
#TROUT LAKE 1NE N/A         46  39  76  W3      30.03R
$$

WAZ521-051810-
SIMCOE HIGHLANDS

CITY            SKY/WX      TMP DP  RH  WIND    PRES   REMARKS
#BICKLETON HS   N/A         46  26  45  W7      N/A
#CENTERVILLE 4W N/A         50  39  66  W15     29.77S
#CENTERVILLE 1SWN/A         49  37  63  W18     30.01S WCI 43
#GOLDENDALE     N/A         49  37  63  W14     N/A    WCI 44
#GOLDENDALE 1NE N/A         50  26  39  SW7     N/A
#GOLDENDALE 5WNWN/A         50  38  63  W18     30.00R
#GOODNOE HILLS  N/A         54  38  55  W21     N/A
#LYLE 6NE       N/A         48  39  71  SW10    30.01S
$$

WAZ026-051810-
KITTITAS VALLEY

CITY            SKY/WX      TMP DP  RH  WIND    PRES   REMARKS
ELLENSBURG AP   MOCLDY      54  32  43  NW13    29.97R
#ELLENSBURG CWU N/A         53  34  48  N7      29.90R
#ELLENSBURG 3NE N/A         50  34  54  NW7     29.97R
#ELLENSBURG 1E  N/A         53  35  50  CALM    N/A
#KITTITAS 4N    N/A         52  33  48  N9      28.28R
#KITTITAS 3S    N/A         52  39  61  CALM    29.93S
#THORP 6N       N/A         46  35  65  W12G26  29.96R WCI 40
$$

WAZ027-051810-
YAKIMA VALLEY

CITY            SKY/WX      TMP DP  RH  WIND    PRES   REMARKS
SUNNYSIDE AP    SUNNY       56  33  42  W3      29.99F
YAKIMA AIRPORT  PTCLDY      60  30  32  VRB6    29.98S
#DONALD 2NE     N/A         63  14  15  SW3     28.82F
#GRANDVIEW      N/A         57  30  35  W3      29.99F
#MABTON         N/A         59  35  40  W9      29.98F
#NACHES 2SW     N/A         54  33  45  SW12    29.96S
#OUTLOOK DOT    N/A         N/A N/A N/A N1      N/A
#SELAH 8E       N/A         54  28  36  SW12    N/A
#TERRACE HTS    N/A         57  34  42  CALM    29.92F
#TOPPENISH      N/A         57  32  38  W9      29.88F
#WAPATO 4NE     N/A         63  14  15  SW3     28.82F
#WEST VALLEY    N/A         57  33  40  CALM    29.93F
#W YAKIMA       N/A         58  33  39  W2      29.94F
#WHITE SWAN 5E  N/A         60  36  41  SW13    29.97S
$$

WAZ028-051810-
LOWER COLUMBIA BASIN...WASHINGTON

CITY            SKY/WX      TMP DP  RH  WIND    PRES   REMARKS
HANFORD         MOSUNNY     60  30  32  SW6     29.98S
PASCO           SUNNY       60  34  37  SW15    30.02S
RICHLAND AWOS   SUNNY       63  34  34  SW13    30.00F
#BASIN CITY 5SW N/A         60  38  44  W5      29.99S
#BENTON CITY    N/A         58  34  40  W8      29.90S
#CONNELL 5N     N/A         56  35  45  SW9     29.97R
#CONNELL 5NW    N/A         56  41  57  S8      29.93S
#ELTOPIA 6NW    N/A         55  37  51  SW13    28.96S
#KAHLOTUS       N/A         54  34  47  W21G31  29.96S
#KENNEWICK      N/A         44  37  76  N10     27.59R
#KENNEWICK 3S   N/A         57  36  45  N5      29.99S
#PATERSON       N/A         57  37  47  W15G26  30.00S
#PROSSER        N/A         58  28  32  NW6     29.97F
#SAGEMOOR 2W    N/A         56  41  57  S7      29.83S
#TOUCHET 2S     N/A         57  41  55  W15     29.99R
#WEST PASCO     N/A         62  40  44  SW7     30.03R
$$

WAZ029-051810-
FOOTHILLS OF THE BLUES...WASHINGTON

CITY            SKY/WX      TMP DP  RH  WIND    PRES   REMARKS
WALLA WALLA AP  PTCLDY      57  32  38  SW20    30.03R
#DAYTON SCHOOL  N/A         53  31  43  SE9G26  30.03R
#LOWDEN 2SE     N/A         58  38  47  W16G24  30.00R
#PLEASANT VIEW 1N/A         54  36  50  S13     30.01S
#PRESCOTT       N/A         55  38  53  SW5     29.99R
#SUDBURY        N/A         58  N/A N/A CALM    N/A
#WHITMAN COLLEGEN/A         55  35  47  W15     30.06R
#WAITSBURG 5S   N/A         52  36  54  SW15    30.08R
#WAITSBURG 8N   N/A         56  17  21  S18     29.88S
#WALLA WALLA 5E N/A         55  38  53  SW14    N/A
#WALLA WALLA U  N/A         56  36  47  SW7     30.02R
#WHITMAN MISSIONN/A         57  41  55  SW9     30.03R
$$

WAZ030-051810-
BLUE MOUNTAINS...WASHINGTON

CITY            SKY/WX      TMP DP  RH  WIND    PRES   REMARKS
#DIXIE 5SE      N/A         45  32  60  SW16G25 29.96R WCI 38
$$

ORZ009-041-WAZ024-051810-
COLUMBIA RIVER GORGE

CITY            SKY/WX      TMP DP  RH  WIND    PRES   REMARKS
HOOD RIVER AP   CLOUDY      52  43  71  NW7     30.09R
THE DALLES AP   SUNNY       58  41  53  NW16    30.06R
#ARLINGTON AIRPON/A         56  38  51  W20     N/A
#ARLINGTON HS   N/A         59  36  42  N7      29.95S
#CELILO DOT     N/A         59  41  51  SW7     N/A
#MOSIER 1S      N/A         53  33  46  NW3     30.06S
#MURDOCK        N/A         56  43  62  NW10    30.08R
#RUFUS DOT      N/A         57  39  51  W9      N/A

$$

ORZ510-051810-
NORTH CENTRAL OREGON

CITY            SKY/WX      TMP DP  RH  WIND    PRES   REMARKS
#CHENOWITH 1W   N/A         48  39  71  NW21    N/A    WCI 41
#COW CYN RST AREN/A         47  27  45  SW8     N/A
#DUFUR 9E       N/A         46  38  73  N5      30.08R
#GRASS VALLEY 1SN/A         52  34  50  W14     30.06S
#KENT DOT       N/A         50  30  46  W22     N/A
#MAUPIN SCHOOL  N/A         56  34  43  W7      30.07S
#MORO SCHOOL    N/A         51  41  68  NW6     30.05F
#SHANIKO 5WSW   N/A         46  27  47  SW12    N/A    WCI 40
#SHANIKO 4NW    N/A         44  26  49  W9      30.02S
#TYGH VALLEY 2NEN/A         55  37  51  SW15    30.01F
#WAPANITIA AIRPON/A         52  34  50  W12     30.02F
#WASCO DOT      N/A         54  40  59  NW12    N/A
#WASCO AIRPORT  N/A         52  36  54  W14     N/A
#WASCO 5NE      N/A         53  38  57  W12     30.03R
$$

ORZ511-051810-
CENTRAL OREGON

CITY            SKY/WX      TMP DP  RH  WIND    PRES   REMARKS
BEND AIRPORT    N/A         N/A N/A N/A MISG    N/A
MADRAS AIRPORT  SUNNY       50  32  50  SE5     30.07S
PRINEVILLE AP   PTCLDY      50  28  42  NW8     30.04S
#BEND 1SW       N/A         49  30  48  SE2     N/A
#BEND-AWBREY    N/A         47  32  56  CALM    29.96F
#BEND-KIM LN    N/A         49  33  54  E2      30.00S
#CROOKED RVR RANN/A         50  30  46  NW9     29.99S
#CULVER         N/A         50  28  42  NW3     30.00F
#LAKE BILLY CHINN/A         51  -6   9  N3      30.11F
#POWELL BUTTE 3EN/A         47  33  58  N5      N/A
#POWELL BUTTE   N/A         54  35  48  N3      29.66F
#PRINEVILLE 3N  N/A         50  33  52  NW8     29.97F
#WARM SPRINGS   N/A         55  33  43  CALM    30.02F

$$


ORZ509-051810-
EAST SLOPES OF OREGON CASCADES

CITY            SKY/WX      TMP DP  RH  WIND    PRES   REMARKS
#BLUE BOX PASS  N/A         36  -14 11  W1      N/A
#CAMP SHERMAN   N/A         49  31  50  NE2     30.06S
#LA PINE 4NW    N/A         43  28  55  CALM    30.03S
#SISTERS AIRPOR N/A         47  33  58  VRB7    30.17S
#SISTERS ODOT   N/A         49  N/A N/A S6      N/A
#SISTERS 1NW    N/A         47  28  47  NW14    N/A    WCI 41
#SISTERS 3N     N/A         49  29  46  S5      30.04S
#SUNRIVER       N/A         48  28  46  SE3     29.84F
#TUMALO 3W      N/A         47  31  53  E2      29.88R
#WANOGA BUTTE D N/A         40  12  31  N8      N/A

$$

ORZ044-051810-
LOWER COLUMBIA BASIN...OREGON

CITY            SKY/WX      TMP DP  RH  WIND    PRES   REMARKS
HERMISTON       SUNNY       58  36  44  W17     30.04R
#BOARDMAN SCHOOLN/A         58  37  45  SW13G26 30.05S
#BOARDMAN 8SW   N/A         57  38  49  SW20    30.00F
#ECHO 8SW       N/A         57  36  45  W10     30.04S
#IONE SCHOOL    N/A         55  32  41  SW9     30.01S
#IRRIGON 4NW    N/A         60  35  39  S21G30  N/A
#UMATILLA SCHOOLN/A         59  44  57  SW15    30.03S
#UMATILLA       N/A         58  37  45  SW13G25 29.95S
$$

ORZ507-051810-
NORTHERN FOOTHILLS OF THE BLUES

CITY            SKY/WX      TMP DP  RH  WIND    PRES   REMARKS
PENDLETON AIRPT MOSUNNY     54  35  48  W13     30.04R
#ADAMS 3WNW     N/A         53  37  54  SW8     30.02S
#ATHENA         N/A         53  36  52  W7      30.02S
#CAYUSE         N/A         53  37  54  SW6     30.01S
#HELIX SCHOOL   N/A         52  36  54  S9      29.99R
#HELIX 3N       N/A         52  35  52  SW17G25 30.00R
#HOLDMAN 6E     N/A         52  33  48  N16G26  29.82R
#M-F FERNDALE   N/A         59  36  42  CALM    30.02R
#M-F GROVE ELEM N/A         56  31  38  SW7     30.02S
#M-FREEWATER 5SEN/A         53  37  54  SW8     30.03S
#PENDLETON DNTN N/A         59  33  37  NW1     30.05S
#PDT AQUATIC CTRN/A         57  36  45  W7      30.03S
#PENDLETON 5NE  N/A         54  37  52  CALM    30.00S
#PDT SUNRIDGE   N/A         57  37  47  SW5     30.05S
#PENDLETON 7NW  N/A         59  40  49  SW7     29.99S
#PILOT ROCK     N/A         56  31  38  S2      30.05
#TUTUILLA       N/A         56  38  51  W7      30.03S
#UMAPINE 2E     N/A         58  40  51  SW7     30.01R
#WESTON SCHOOL  N/A         50  30  46  N7      30.01F

$$

ORZ508-051810-
SOUTHERN FOOTHILLS OF THE BLUES

CITY            SKY/WX      TMP DP  RH  WIND    PRES   REMARKS
LEXINGTON       SUNNY       57  30  35  W14     30.05S
#AJAX           N/A         51  25  36  S12     29.97S
#CONDON SCHOOL  N/A         48  31  51  CALM    29.98F
#CONDON 5W      N/A         46  28  49  W16G24  29.98F WCI 39
#FOSSIL SCHOOL  N/A         48  32  54  W7      30.00F
#HEPPNER EOC    N/A         51  32  48  W8      29.94F
#HEPPNER 4NE    N/A         50  29  44  W9      29.99S
#LEXINGTON 2SE  N/A         56  31  38  W13     30.01F
#MIKKALO        N/A         54  31  41  W7      30.03F
#OLEX 4N        N/A         54  38  55  W8      30.02F
#RUGGS 5NE      N/A         50  29  44  W15G24  30.20S
#RUGGS 2SW      N/A         50  32  50  W8      30.02S

$$

ORZ502-503-051810-
BLUE MOUNTAINS

CITY            SKY/WX      TMP DP  RH  WIND    PRES   REMARKS
MEACHAM         MOCLDY      45  31  58  VRB5    30.02S
#BATTLE MTN DOT N/A         45  38  76  W2      N/A
#HEPPNER 15SE   N/A         44  32  62  W2      29.91R
#LADD CYN SMT   N/A         46  30  53  W12     N/A    WCI 40
#LADD CREEK ODOTN/A         49  36  61  NE10    N/A
#LONG CREEK HS  N/A         45  37  73  CALM    29.97F
#N POWDER DOT   N/A         49  37  63  N24     N/A    WCI 42
#PIKES PEAK     N/A         41  30  65  SW14    27.99S WCI 33
#TOLLGATE       N/A         36  30  79  SW7     29.92S
#TROY SCHOOL    N/A         60  37  42  SE7     29.78F
#UKIAH          N/A         49  35  58  S1      30.03F
#WESTON 4E      N/A         45  35  68  S8      29.92R
$$

ORZ505-051810-
JOHN DAY BASIN

CITY            SKY/WX      TMP DP  RH  WIND    PRES   REMARKS
JOHN DAY        SUNNY       49  32  52  W5      30.01F
#DAYVILLE SCHOOLN/A         53  29  39  N2      29.99S
#MITCHELL       N/A         50  35  56  CALM    30.16S
#MONUMENT HS    N/A         53  32  45  W5      30.03F
#MT. VERNON 5SE N/A         47  30  51  NW2     29.96F
#WINLOCK        N/A         52  31  44  S7      30.10F
$$

ORZ506-051810-
OCHOCO AND JOHN DAY HIGHLANDS

CITY            SKY/WX      TMP DP  RH  WIND    PRES   REMARKS
#BUCK CREEK DOT N/A         46  46  100 W8      N/A
#HORSE RIDGE DO N/A         46  26  45  N3      N/A
#KEYES SMT DOT  N/A         43  29  57  W9      N/A
#PAULINA SCHOOL N/A         49  29  46  CALM    30.01S
#PINE MTN OBS   N/A         37  26  64  N2      N/A
#PRAIRIE CITY   N/A         54  37  52  W2      29.98
#SENECA         N/A         47  N/A N/A N5      N/A
#SENECA 9NW     N/A         44  31  60  CALM    29.88F
$$

ORZ049-051810-
GRANDE RONDE VALLEY

CITY            SKY/WX      TMP DP  RH  WIND    PRES   REMARKS
LA GRANDE       MOSUNNY     52  28  39  NW12    30.01S
#COVE           N/A         49  37  63  W5      30.02S
#COVE SCHOOL    N/A         50  35  56  CALM    29.99S
#ELGIN 3N       N/A         51  29  42  S2      29.99S
#ELGIN 1E       N/A         51  31  46  CALM    N/A
#IMBLER SCHOOL  N/A         55  29  37  N2      29.98S
#ISLAND CITY 4N N/A         53  46  77  CALM    30.09S
#LADD CYN DOT   N/A         50  36  58  N8      N/A
#LA GRANDE ELEM N/A         51  34  52  NW5     30.02F
#UNION 1S       N/A         50  33  52  NW3     29.87S
$$

ORZ050-051810-
WALLOWA COUNTY

CITY            SKY/WX      TMP DP  RH  WIND    PRES   REMARKS
JOSEPH AIRPORT  CLOUDY      43  32  65  CALM    30.01R
#ENTERPRISE HS  N/A         45  32  60  NW6     30.01R
#IMNAHA SCHOOL  N/A         56  36  47  S2      29.98S
#IMNAHA 10S     N/A         50  35  56  SW1     29.98S
#JOSEPH 3N      N/A         44  29  55  N3      30.02R
#JOSEPH 3W      N/A         41  32  70  NE2     29.84R
#LOSTINE        N/A         48  34  58  NW10    29.73S
#MT HOWARD 8000 N/A         34  28  78  CALM    29.96R
#PROMISE 1S     N/A         45  31  58  E7      30.05R
#SHEEP RDG 7000 N/A         28  26  92  CALM    29.86R
#WALLOWA SCHOOL N/A         48  31  51  NW1     30.85R



$$



USA.gov is the U.S. government's official web portal to all federal, state and local government web resources and services.